When you browse on this site, cookies collect data to enhance your experience and personalize the content and advertising you see.
Visit our Privacy Policy to learn more. By continuing to use the site, you agree to this use of cookies and data.
  • In Netherlands
  • List of Countries
  • For 7 days
  • Water Temperature
  • Satellite Maps
  • Weather Map
  • Weather Widgets
  • user-avatar
    Login

    Hourly Weather Potsdam

    Today, 10 December, Monday

    Time Temperature Precipitation Wind Pressure Humidity
    00:00 +4°C° 0 mm 7 mps 747 mmHg 73%
    01:00 +3°C° 0 mm 5 mps 748 mmHg 76%
    02:00 +3°C° 0 mm 6 mps 749 mmHg 76%
    03:00 +3°C° 0 mm 6 mps 749 mmHg 75%
    04:00 +3°C° 0 mm 6 mps 750 mmHg 75%
    05:00 +3°C° 0 mm 6 mps 750 mmHg 75%
    06:00 +3°C° 0 mm 6 mps 751 mmHg 75%
    07:00 +2°C° 0 mm 5 mps 752 mmHg 80%
    08:00 +2°C° 0 mm 6 mps 752 mmHg 77%
    09:00 +2°C° 0 mm 7 mps 752 mmHg 75%
    10:00 +2°C° 0 mm 8 mps 753 mmHg 72%
    11:00 +2°C° 0.1 mm 8 mps 753 mmHg 70%
    12:00 +2°C° 0.1 mm 8 mps 753 mmHg 67%
    13:00 +4°C° 0.1 mm 7 mps 753 mmHg 64%
    14:00 +3°C° 0.1 mm 7 mps 753 mmHg 65%
    15:00 +3°C° 0.1 mm 6 mps 753 mmHg 67%
    16:00 +3°C° 0.1 mm 6 mps 753 mmHg 68%
    17:00 +2°C° 0 mm 6 mps 753 mmHg 69%
    18:00 +2°C° 0 mm 6 mps 753 mmHg 71%
    19:00 +2°C° 0 mm 6 mps 753 mmHg 73%
    20:00 +2°C° 0 mm 6 mps 753 mmHg 74%
    21:00 +2°C° 0 mm 6 mps 753 mmHg 75%
    22:00 +2°C° 0 mm 6 mps 753 mmHg 76%
    23:00 +2°C° 0 mm 6 mps 753 mmHg 77%

    Tomorrow, 11 December, Tuesday

    Time Temperature Precipitation Wind Pressure Humidity
    00:00 +2°C° 0 mm 6 mps 753 mmHg 78%
    01:00 +2°C° 0 mm 5 mps 753 mmHg 78%
    02:00 +2°C° 0.1 mm 6 mps 753 mmHg 77%
    03:00 +2°C° 0.1 mm 6 mps 753 mmHg 76%
    04:00 +2°C° 0.1 mm 6 mps 753 mmHg 75%
    05:00 +2°C° 0.3 mm 6 mps 753 mmHg 75%
    06:00 +2°C° 0.3 mm 6 mps 753 mmHg 75%
    07:00 +2°C° 0.3 mm 7 mps 753 mmHg 74%
    08:00 +2°C° 0.3 mm 7 mps 754 mmHg 75%
    09:00 +2°C° 0.3 mm 6 mps 754 mmHg 77%
    10:00 +2°C° 0.3 mm 6 mps 755 mmHg 78%
    11:00 +3°C° 0.2 mm 6 mps 755 mmHg 75%
    12:00 +3°C° 0.2 mm 6 mps 755 mmHg 73%
    13:00 +3°C° 0.2 mm 5 mps 756 mmHg 70%
    14:00 +2°C° 0.1 mm 5 mps 756 mmHg 73%
    15:00 +3°C° 0.1 mm 4 mps 757 mmHg 75%
    16:00 +2°C° 0.1 mm 3 mps 757 mmHg 78%
    17:00 +2°C° 0.1 mm 3 mps 758 mmHg 80%
    18:00 +1°C° 0.1 mm 3 mps 758 mmHg 83%
    19:00 +1°C° 0.1 mm 3 mps 758 mmHg 85%
    20:00 +1°C° 0 mm 3 mps 759 mmHg 86%
    21:00 0°C° 0 mm 3 mps 759 mmHg 87%
    22:00 0°C° 0 mm 3 mps 759 mmHg 88%
    23:00 0°C° 0 mm 3 mps 760 mmHg 89%

    Day after tomorrow, 12 December, Wednesday

    Time Temperature Precipitation Wind Pressure Humidity
    00:00 0°C° 0 mm 3 mps 760 mmHg 90%
    01:00 0°C° 0 mm 3 mps 760 mmHg 91%
    02:00 0°C° 0 mm 3 mps 760 mmHg 92%
    03:00 0°C° 0 mm 3 mps 761 mmHg 94%
    04:00 0°C° 0 mm 3 mps 761 mmHg 95%
    05:00 0°C° 0.2 mm 3 mps 761 mmHg 95%
    06:00 0°C° 0.2 mm 3 mps 761 mmHg 94%
    07:00 +1°C° 0.2 mm 3 mps 761 mmHg 94%
    08:00 +1°C° 0.2 mm 3 mps 762 mmHg 93%
    09:00 +1°C° 0.2 mm 3 mps 762 mmHg 91%
    10:00 +3°C° 0.2 mm 2 mps 762 mmHg 90%
    11:00 +3°C° 0 mm 2 mps 762 mmHg 87%
    12:00 +3°C° 0 mm 2 mps 762 mmHg 83%
    13:00 +4°C° 0 mm 2 mps 762 mmHg 80%
    14:00 +4°C° 0 mm 1 mps 762 mmHg 83%
    15:00 +3°C° 0 mm 1 mps 762 mmHg 85%
    16:00 +3°C° 0 mm 1 mps 762 mmHg 88%
    17:00 +2°C° 0 mm 1 mps 762 mmHg 89%
    18:00 +2°C° 0 mm 1 mps 762 mmHg 89%
    19:00 +1°C° 0 mm 1 mps 762 mmHg 90%
    20:00 +1°C° 0 mm 1 mps 762 mmHg 90%
    21:00 0°C° 0 mm 0 mps 762 mmHg 90%
    22:00 0°C° 0 mm 0 mps 762 mmHg 90%
    23:00 0°C° 0 mm 0 mps 762 mmHg 91%

    13 December, Thursday

    Time Temperature Precipitation Wind Pressure Humidity
    00:00 0°C° 0 mm 0 mps 762 mmHg 91%
    01:00 0°C° 0 mm 0 mps 762 mmHg 91%
    02:00 0°C° 0 mm 0 mps 762 mmHg 91%
    03:00 0°C° 0 mm 0 mps 762 mmHg 91%
    04:00 0°C° 0 mm 0 mps 762 mmHg 91%
    05:00 0°C° 0 mm 0 mps 761 mmHg 92%
    06:00 +1°C° 0 mm 1 mps 761 mmHg 92%
    07:00 +1°C° 0 mm 1 mps 761 mmHg 92%
    08:00 +1°C° 0 mm 1 mps 761 mmHg 91%
    09:00 +1°C° 0 mm 1 mps 761 mmHg 90%
    10:00 +2°C° 0 mm 1 mps 761 mmHg 88%
    11:00 +2°C° 0 mm 1 mps 761 mmHg 85%
    12:00 +2°C° 0 mm 2 mps 761 mmHg 83%
    13:00 +2°C° 0 mm 2 mps 760 mmHg 80%
    14:00 +2°C° 0 mm 2 mps 760 mmHg 82%
    15:00 +1°C° 0 mm 2 mps 760 mmHg 85%
    16:00 +1°C° 0 mm 2 mps 760 mmHg 88%
    17:00 -1°C° 0 mm 2 mps 760 mmHg 88%
    18:00 -1°C° 0 mm 2 mps 760 mmHg 89%
    19:00 -1°C° 0 mm 2 mps 761 mmHg 90%
    20:00 +1°C° 0 mm 1 mps 761 mmHg 90%
    21:00 +1°C° 0 mm 1 mps 761 mmHg 89%
    22:00 +1°C° 0 mm 1 mps 761 mmHg 89%
    23:00 0°C° 0 mm 1 mps 761 mmHg 90%

    14 December, Friday

    Time Temperature Precipitation Wind Pressure Humidity
    00:00 0°C° 0 mm 1 mps 761 mmHg 91%
    01:00 0°C° 0 mm 1 mps 761 mmHg 92%
    02:00 0°C° 0 mm 1 mps 761 mmHg 93%
    03:00 0°C° 0 mm 1 mps 762 mmHg 93%
    04:00 -1°C° 0 mm 1 mps 762 mmHg 93%
    05:00 -1°C° 0 mm 1 mps 762 mmHg 93%
    06:00 -1°C° 0 mm 1 mps 762 mmHg 93%
    07:00 -3°C° 0 mm 2 mps 763 mmHg 93%
    08:00 -2°C° 0 mm 2 mps 763 mmHg 90%
    09:00 -2°C° 0 mm 2 mps 764 mmHg 88%
    10:00 -2°C° 0 mm 2 mps 764 mmHg 85%
    11:00 -1°C° 0 mm 2 mps 764 mmHg 81%
    12:00 +1°C° 0 mm 2 mps 764 mmHg 78%
    13:00 +1°C° 0 mm 2 mps 764 mmHg 74%
    14:00 -1°C° 0 mm 2 mps 765 mmHg 78%
    15:00 -1°C° 0 mm 2 mps 765 mmHg 82%
    16:00 -2°C° 0 mm 2 mps 765 mmHg 86%
    17:00 -2°C° 0 mm 2 mps 766 mmHg 88%
    18:00 -2°C° 0 mm 2 mps 766 mmHg 89%
    19:00 -3°C° 0 mm 2 mps 766 mmHg 91%
    20:00 -3°C° 0 mm 2 mps 766 mmHg 91%
    21:00 -3°C° 0 mm 2 mps 767 mmHg 92%
    22:00 -3°C° 0 mm 2 mps 767 mmHg 92%
    23:00 -3°C° 0 mm 2 mps 767 mmHg 93%

    15 December, Saturday

    Time Temperature Precipitation Wind Pressure Humidity
    00:00 -3°C° 0 mm 2 mps 767 mmHg 93%
    01:00 -3°C° 0 mm 2 mps 767 mmHg 93%
    02:00 -3°C° 0 mm 2 mps 768 mmHg 93%
    03:00 -4°C° 0 mm 2 mps 768 mmHg 93%
    04:00 -4°C° 0 mm 2 mps 768 mmHg 93%
    05:00 -4°C° 0 mm 2 mps 768 mmHg 92%
    06:00 -4°C° 0 mm 2 mps 768 mmHg 92%
    07:00 -4°C° 0 mm 2 mps 769 mmHg 91%
    08:00 -3°C° 0 mm 2 mps 769 mmHg 88%
    09:00 -4°C° 0 mm 3 mps 769 mmHg 85%
    10:00 -4°C° 0 mm 3 mps 769 mmHg 82%
    11:00 -2°C° 0 mm 3 mps 769 mmHg 79%
    12:00 -1°C° 0 mm 3 mps 769 mmHg 76%
    13:00 -1°C° 0 mm 3 mps 769 mmHg 73%
    14:00 -1°C° 0 mm 3 mps 769 mmHg 77%
    15:00 -2°C° 0 mm 3 mps 769 mmHg 80%
    16:00 -4°C° 0 mm 3 mps 769 mmHg 84%
    17:00 -4°C° 0 mm 3 mps 769 mmHg 85%
    18:00 -4°C° 0 mm 3 mps 768 mmHg 85%
    19:00 -4°C° 0 mm 4 mps 768 mmHg 86%
    20:00 -4°C° 0 mm 4 mps 768 mmHg 86%
    21:00 -4°C° 0 mm 4 mps 768 mmHg 85%
    22:00 -4°C° 0 mm 4 mps 768 mmHg 85%
    23:00 -4°C° 0 mm 4 mps 767 mmHg 85%
    Show more